TimeCST,TemperatureF,Dew PointF,Humidity,Sea Level PressureIn,VisibilityMPH,Wind Direction,Wind SpeedMPH,Gust SpeedMPH,PrecipitationIn,Events,Conditions,WindDirDegrees,DateUTC
12:15 AM,33.8,24.8,70,30.15,10.0,ESE,5.8,-,N/A,,Clear,120,2013-01-08 06:15:00
12:35 AM,35.6,23.0,60,30.14,10.0,East,3.5,-,N/A,,Clear,100,2013-01-08 06:35:00
12:55 AM,32.0,24.8,75,30.14,10.0,Calm,Calm,-,N/A,,Clear,0,2013-01-08 06:55:00
1:15 AM,30.2,24.8,80,30.14,10.0,Calm,Calm,-,N/A,,Clear,0,2013-01-08 07:15:00
1:35 AM,28.4,24.8,86,30.14,10.0,Calm,Calm,-,N/A,,Clear,0,2013-01-08 07:35:00
1:55 AM,28.4,24.8,86,30.15,10.0,Calm,Calm,-,N/A,,Clear,0,2013-01-08 07:55:00
2:15 AM,26.6,24.8,93,30.15,10.0,Calm,Calm,-,N/A,,Clear,0,2013-01-08 08:15:00
2:35 AM,26.6,24.8,93,30.15,10.0,Calm,Calm,-,N/A,,Clear,0,2013-01-08 08:35:00
2:55 AM,28.4,24.8,86,30.16,10.0,Calm,Calm,-,N/A,,Clear,0,2013-01-08 08:55:00
3:15 AM,26.6,24.8,93,30.16,10.0,SE,4.6,-,N/A,,Clear,130,2013-01-08 09:15:00
3:35 AM,28.4,23.0,80,30.15,10.0,Calm,Calm,-,N/A,,Clear,0,2013-01-08 09:35:00
3:55 AM,26.6,24.8,93,30.16,10.0,Calm,Calm,-,N/A,,Clear,0,2013-01-08 09:55:00
4:15 AM,24.8,23.0,93,30.15,10.0,Calm,Calm,-,N/A,,Clear,0,2013-01-08 10:15:00
4:35 AM,26.6,23.0,86,30.15,10.0,Calm,Calm,-,N/A,,Clear,0,2013-01-08 10:35:00
4:55 AM,26.6,24.8,93,30.15,10.0,Calm,Calm,-,N/A,,Clear,0,2013-01-08 10:55:00
5:15 AM,24.8,23.0,93,30.16,10.0,Calm,Calm,-,N/A,,Clear,0,2013-01-08 11:15:00
5:35 AM,24.8,23.0,93,30.17,10.0,Calm,Calm,-,N/A,,Clear,0,2013-01-08 11:35:00
5:55 AM,24.8,23.0,93,30.16,10.0,Calm,Calm,-,N/A,,Clear,0,2013-01-08 11:55:00
6:15 AM,24.8,24.8,100,30.17,10.0,Calm,Calm,-,N/A,,Clear,0,2013-01-08 12:15:00
6:55 AM,32.0,24.8,75,30.17,10.0,SE,4.6,-,N/A,,Clear,130,2013-01-08 12:55:00
7:15 AM,32.0,24.8,75,30.17,10.0,SE,4.6,-,N/A,,Clear,130,2013-01-08 13:15:00
7:35 AM,32.0,24.8,75,30.17,10.0,SE,6.9,-,N/A,,Clear,130,2013-01-08 13:35:00
8:15 AM,32.0,24.8,75,30.19,10.0,SE,5.8,-,N/A,,Clear,140,2013-01-08 14:15:00
8:55 AM,33.8,24.8,70,30.19,10.0,SE,6.9,-,N/A,,Clear,140,2013-01-08 14:55:00
9:15 AM,35.6,26.6,70,30.19,10.0,SE,6.9,-,N/A,,Clear,140,2013-01-08 15:15:00
9:35 AM,35.6,26.6,70,30.18,10.0,SE,8.1,-,N/A,,Clear,130,2013-01-08 15:35:00
9:55 AM,37.4,26.6,65,30.19,10.0,SE,8.1,-,N/A,,Clear,140,2013-01-08 15:55:00
10:15 AM,39.2,26.6,61,30.18,10.0,SE,6.9,-,N/A,,Clear,130,2013-01-08 16:15:00
10:35 AM,39.2,26.6,61,30.18,10.0,SE,8.1,-,N/A,,Clear,130,2013-01-08 16:35:00
10:55 AM,41.0,28.4,61,30.16,10.0,SE,8.1,-,N/A,,Clear,130,2013-01-08 16:55:00
11:15 AM,44.6,28.4,53,30.16,10.0,SE,4.6,-,N/A,,Clear,140,2013-01-08 17:15:00
11:35 AM,46.4,26.6,46,30.14,10.0,SSE,4.6,-,N/A,,Clear,150,2013-01-08 17:35:00
12:15 PM,48.2,26.6,43,30.13,10.0,SSE,9.2,-,N/A,,Clear,160,2013-01-08 18:15:00
12:35 PM,48.2,26.6,43,30.12,10.0,SSE,9.2,-,N/A,,Clear,150,2013-01-08 18:35:00
12:55 PM,50.0,24.8,37,30.10,10.0,SSE,6.9,-,N/A,,Clear,160,2013-01-08 18:55:00
1:15 PM,51.8,24.8,35,30.10,10.0,SSE,6.9,-,N/A,,Clear,150,2013-01-08 19:15:00
1:55 PM,53.6,24.8,33,30.08,10.0,South,8.1,-,N/A,,Clear,180,2013-01-08 19:55:00
2:15 PM,53.6,26.6,35,30.07,10.0,SSE,6.9,-,N/A,,Clear,150,2013-01-08 20:15:00
2:35 PM,55.4,23.0,29,30.07,10.0,South,9.2,-,N/A,,Clear,190,2013-01-08 20:35:00
2:55 PM,55.4,24.8,31,30.07,10.0,South,10.4,-,N/A,,Clear,170,2013-01-08 20:55:00
3:15 PM,55.4,23.0,29,30.06,10.0,South,9.2,-,N/A,,Clear,190,2013-01-08 21:15:00
3:35 PM,53.6,24.8,33,30.07,10.0,South,9.2,-,N/A,,Mostly Cloudy,180,2013-01-08 21:35:00
3:55 PM,53.6,24.8,33,30.08,10.0,South,6.9,-,N/A,,Overcast,170,2013-01-08 21:55:00
4:15 PM,53.6,24.8,33,30.07,10.0,SE,5.8,-,N/A,,Overcast,140,2013-01-08 22:15:00
4:35 PM,51.8,24.8,35,30.07,10.0,SE,6.9,-,N/A,,Mostly Cloudy,140,2013-01-08 22:35:00
4:55 PM,51.8,23.0,33,30.07,10.0,SE,8.1,-,N/A,,Partly Cloudy,140,2013-01-08 22:55:00
5:35 PM,50.0,23.0,35,30.07,10.0,SE,8.1,-,N/A,,Scattered Clouds,140,2013-01-08 23:35:00
5:55 PM,48.2,26.6,43,30.08,10.0,SE,10.4,-,N/A,,Overcast,140,2013-01-08 23:55:00
6:35 PM,50.0,24.8,37,30.09,10.0,SE,8.1,-,N/A,,Overcast,140,2013-01-09 00:35:00
6:55 PM,50.0,23.0,35,30.10,10.0,SE,6.9,-,N/A,,Overcast,130,2013-01-09 00:55:00
7:15 PM,50.0,23.0,35,30.10,10.0,SE,3.5,-,N/A,,Overcast,140,2013-01-09 01:15:00
7:35 PM,48.2,26.6,43,30.11,10.0,SSE,6.9,-,N/A,,Overcast,160,2013-01-09 01:35:00
7:55 PM,50.0,30.2,47,30.11,10.0,South,9.2,-,N/A,,Overcast,180,2013-01-09 01:55:00
8:15 PM,50.0,30.2,47,30.11,10.0,South,11.5,-,N/A,,Overcast,190,2013-01-09 02:15:00
8:35 PM,50.0,32.0,50,30.11,10.0,South,6.9,-,N/A,,Overcast,190,2013-01-09 02:35:00
8:55 PM,48.2,32.0,54,30.11,10.0,South,6.9,-,N/A,,Overcast,170,2013-01-09 02:55:00
9:15 PM,46.4,32.0,57,30.12,10.0,SSE,5.8,-,N/A,,Overcast,160,2013-01-09 03:15:00
9:35 PM,48.2,32.0,54,30.12,10.0,SSE,4.6,-,N/A,,Mostly Cloudy,150,2013-01-09 03:35:00
10:15 PM,48.2,32.0,54,30.13,10.0,Calm,Calm,-,N/A,,Mostly Cloudy,0,2013-01-09 04:15:00
10:35 PM,48.2,32.0,54,30.13,10.0,Calm,Calm,-,N/A,,Clear,0,2013-01-09 04:35:00
11:15 PM,46.4,33.8,62,30.16,10.0,Calm,Calm,-,N/A,,Overcast,0,2013-01-09 05:15:00
11:55 PM,46.4,35.6,66,30.17,10.0,Calm,Calm,-,N/A,,Overcast,0,2013-01-09 05:55:00